TimeEST,TemperatureF,Dew PointF,Humidity,Sea Level PressureIn,VisibilityMPH,Wind Direction,Wind SpeedMPH,Gust SpeedMPH,PrecipitationIn,Events,Conditions,WindDirDegrees,DateUTC
12:53 AM,66.0,57.0,73,30.21,10.0,NNE,11.5,20.7,N/A,,Mostly Cloudy,30,2013-02-02 05:53:00
1:53 AM,64.9,57.9,78,30.20,10.0,NE,11.5,-,N/A,,Overcast,40,2013-02-02 06:53:00
2:53 AM,66.0,55.9,70,30.19,10.0,NE,12.7,20.7,N/A,,Mostly Cloudy,40,2013-02-02 07:53:00
3:53 AM,64.4,55.4,73,30.18,10.0,ENE,8.1,-,N/A,,Clear,60,2013-02-02 08:53:00
4:53 AM,64.9,57.0,75,30.19,10.0,NE,6.9,17.3,N/A,,Clear,40,2013-02-02 09:53:00
5:53 AM,64.9,57.0,75,30.20,10.0,NE,9.2,-,N/A,,Clear,40,2013-02-02 10:53:00
6:53 AM,64.9,57.0,75,30.21,10.0,NE,9.2,-,N/A,,Clear,40,2013-02-02 11:53:00
7:53 AM,66.0,55.9,70,30.22,10.0,NE,9.2,17.3,N/A,,Partly Cloudy,40,2013-02-02 12:53:00
8:53 AM,66.9,54.0,63,30.23,10.0,NE,11.5,18.4,N/A,,Clear,40,2013-02-02 13:53:00
9:53 AM,68.0,53.1,59,30.24,10.0,NE,15.0,20.7,N/A,,Clear,40,2013-02-02 14:53:00
10:53 AM,70.0,54.0,57,30.22,10.0,NE,11.5,18.4,N/A,,Clear,50,2013-02-02 15:53:00
11:53 AM,72.0,55.9,57,30.20,10.0,NE,11.5,17.3,N/A,,Clear,50,2013-02-02 16:53:00
12:53 PM,73.0,57.0,57,30.18,10.0,NE,9.2,-,N/A,,Clear,50,2013-02-02 17:53:00
1:53 PM,75.0,57.0,53,30.15,10.0,ENE,10.4,19.6,N/A,,Clear,70,2013-02-02 18:53:00
2:53 PM,75.0,57.0,53,30.13,10.0,East,13.8,19.6,N/A,,Clear,90,2013-02-02 19:53:00
3:53 PM,73.0,55.9,55,30.12,10.0,East,13.8,-,N/A,,Partly Cloudy,80,2013-02-02 20:53:00
4:53 PM,73.0,57.9,59,30.12,10.0,East,11.5,-,N/A,,Clear,80,2013-02-02 21:53:00
5:53 PM,71.1,55.9,59,30.12,10.0,East,8.1,-,N/A,,Clear,80,2013-02-02 22:53:00
6:53 PM,70.0,57.9,65,30.13,10.0,ENE,4.6,-,N/A,,Clear,60,2013-02-02 23:53:00
7:53 PM,70.0,57.9,65,30.14,10.0,ENE,6.9,-,N/A,,Overcast,70,2013-02-03 00:53:00
8:53 PM,69.1,59.0,70,30.15,10.0,NE,5.8,-,N/A,,Overcast,50,2013-02-03 01:53:00
9:53 PM,69.1,59.0,70,30.15,10.0,NE,5.8,-,N/A,,Mostly Cloudy,50,2013-02-03 02:53:00
10:53 PM,68.0,59.0,73,30.15,10.0,NE,4.6,-,N/A,,Mostly Cloudy,50,2013-02-03 03:53:00
11:53 PM,69.1,60.1,73,30.13,10.0,NNE,4.6,-,N/A,,Overcast,30,2013-02-03 04:53:00